STARLINK-1265, 45406

Orbit data source: Space-Track

STARLINK-1265, 45406 is a payload satellite owned by SpaceX/Seattle (US) in LEO that was launched on Wed, 18 Mar 2020 UTC via an FALCON 9 launch vehicle from the Air Force Eastern Test Range (AFETR). Payloads include a variety of satellites, spacecraft, and rockets equipped with specific instruments for various scientific and technological missions. These include communications satellites like Starlink; space stations such as the ISS; scientific satellites like the Hubble; Earth observation satellites from companies like Planet Labs, Umbra, and HawkEye 360; GPS; miniature CubeSats for education and research; and military/defense satellites.

Loading next visibility...
STARLINK-1265 details
Identifier
45406, 2020-019AY
Orbit
LEO
Last TLE update1 day ago
Origin
Flag of USSpaceX/Seattle (US)
ManufacturerSpaceX/Seattle
MissionOperational Commercial Communications
Bus & MotorSTARLINK, Unknown motor
Mass260 kg wet, ~248 kg dry
Launch date (UTC)
2020-03-18 (5 years ago)
Launch vehicle
FALCON 9
Launch site
Air Force Eastern Test Range (AFETR)
Object type
Payload
Rocket body
Debris
Shape & HBRBox + 1 Pan, 8.86 m
Radar Cross Section13.562 m², Large (>1 m²)

Expand to show TLE details & history

TLE from 1 day ago
0 STARLINK-1265
1 45406U 20019AY  24347.35634621  .00015003  00000-0  10245-2 0  9994
2 45406  53.0554   7.2207 0001447  89.4112 270.7043 15.06379887261682
Epoch: 2024-12-12T08:33Z
Definitive object data (Epoch: 2024-12-12T08:33:08.312Z)
Latitude-0.00001°
Longitude157.39821°
Altitude548.14 km
Speed7.589 km/s
True Right ascension00h 28m 52s
True Declination0° 00' 00"
Sunlit
Object was in daylight at TLE epoch
Visualization TLE readout
Latitude16.28555°
Longitude165.5336°
Altitude547.085 km
Speed7.591 km/s
Apparent Right ascension22h 35m 50s
Apparent Declination-14° 32' 02"
Sunlit
Object is in full shadow
Visualization observer readout
Local Sidereal Time07:01:15
Azimuth282.703° WNW
Elevation-36.952°
Doppler factor1
Orbital elements
Apogee altitude548.546 km
Perigee altitude546.542 km
Semi-major axis6,925.681 km
Eccentricity0.0001447
Inclination53.0554°
RAAN7.2207°
Arg. of periapsis89.4112°
True anomaly270.68772°
Mean anomaly270.7043°
Eccentric anomaly270.69601°
Mean motion3.76573 °/min
BSTAR0.0010245
Orbital period95.6 mins
Loading maneuver chart data...
Loading historical data...
Loading historical data...
Loading historical data...
Loading historical data...
Loading historical data...
Loading historical data...
Loading historical data...

STARLINK-1265 Visibility forecast

Observer location: undefined°, undefined

Span
Click to sort rows by Start time (UTC) header in descending order
Start Az.
Max El. time (UTC)
Max El. Az.
Max El.
End time (UTC)
End Az.
4 mins2024-12-13 08:51:38.944Z339.685° N2024-12-13 08:53:38.944Z11.263° NNE15.931°2024-12-13 08:55:38.944Z45.188° ENE
6 mins2024-12-13 10:31:38.944Z325.073° NNW2024-12-13 10:34:38.944Z63.495° ENE37.053°2024-12-13 10:37:38.944Z111.169° ESE
4 mins2024-12-13 12:11:38.944Z265.414° W2024-12-13 12:13:38.944Z225.836° WSW20.194°2024-12-13 12:15:38.944Z190.357° SSW
6 mins2024-12-14 03:43:38.944Z217.892° SW2024-12-14 03:46:38.944Z100.365° ESE42.44°2024-12-14 03:49:38.944Z55.398° ENE
4 mins2024-12-14 05:24:38.944Z303.265° NW2024-12-14 05:26:38.944Z347.2° N21.667°2024-12-14 05:28:38.944Z22.247° NNE
|